owner,sensor,date,latitude,longitude,vertical_datum,sea_water_temperature,qcFlag
BP,ioos:station:wmo:42369:2,2021-10-01T00:19:00Z,27.2136,-90.2734,561.5,9.3,11113222
BP,ioos:station:wmo:42369:2,2021-10-01T00:39:00Z,27.2136,-90.2734,560.3,9.2,11113222
BP,ioos:station:wmo:42369:2,2021-10-01T00:59:00Z,27.2135,-90.2734,559.1,9.2,11113222
BP,ioos:station:wmo:42369:2,2021-10-01T01:19:00Z,27.2135,-90.2733,558.6,9.3,11113222
BP,ioos:station:wmo:42369:2,2021-10-01T01:39:00Z,27.2136,-90.2735,557.6,9.3,11113222
BP,ioos:station:wmo:42369:2,2021-10-01T01:59:00Z,27.2136,-90.2735,556.9,9.4,11113222
BP,ioos:station:wmo:42369:2,2021-10-01T02:19:00Z,27.2137,-90.2735,555.7,9.3,11113222
BP,ioos:station:wmo:42369:2,2021-10-01T02:39:00Z,27.2137,-90.2736,555.0,9.3,11113222
BP,ioos:station:wmo:42369:2,2021-10-01T02:59:00Z,27.2137,-90.2736,555.5,9.2,11113222
BP,ioos:station:wmo:42369:2,2021-10-01T03:19:00Z,27.2138,-90.2736,553.9,9.3,11113222
BP,ioos:station:wmo:42369:2,2021-10-01T08:59:00Z,27.2138,-90.2735,557.3,9.2,11113222
BP,ioos:station:wmo:42369:2,2021-10-01T23:59:00Z,27.2138,-90.2735,570.2,9.2,11113222
BP,ioos:station:wmo:42369:2,2021-10-02T01:59:00Z,27.2138,-90.2735,565.7,9.3,11113222
BP,ioos:station:wmo:42369:2,2021-10-02T02:19:00Z,27.2137,-90.2735,563.4,9.3,11113222
BP,ioos:station:wmo:42369:2,2021-10-02T02:39:00Z,27.2134,-90.2733,563.2,9.4,11113222
BP,ioos:station:wmo:42369:2,2021-10-02T02:59:00Z,27.2134,-90.2733,561.9,9.4,11113222
BP,ioos:station:wmo:42369:2,2021-10-02T03:19:00Z,27.2133,-90.2733,562.5,9.4,11113222
BP,ioos:station:wmo:42369:2,2021-10-02T03:39:00Z,27.2134,-90.2732,562.4,9.4,11113222
BP,ioos:station:wmo:42369:2,2021-10-02T03:59:00Z,27.2135,-90.2733,560.9,9.4,11113222
BP,ioos:station:wmo:42369:2,2021-10-02T04:19:00Z,27.2136,-90.2733,558.7,9.4,11113222
BP,ioos:station:wmo:42369:2,2021-10-02T04:39:00Z,27.2136,-90.2733,555.7,9.4,11113222
BP,ioos:station:wmo:42369:2,2021-10-02T04:59:00Z,27.2136,-90.2733,553.7,9.5,11113222
BP,ioos:station:wmo:42369:2,2021-10-02T05:19:00Z,27.2136,-90.2733,552.1,9.5,11113222
BP,ioos:station:wmo:42369:2,2021-10-02T05:39:00Z,27.2136,-90.2733,551.7,9.6,11113222
BP,ioos:station:wmo:42369:2,2021-10-02T05:59:00Z,27.2136,-90.2733,551.5,9.6,11113222
BP,ioos:station:wmo:42369:2,2021-10-02T06:19:00Z,27.2136,-90.2733,552.7,9.6,11113222
BP,ioos:station:wmo:42369:2,2021-10-02T06:39:00Z,27.2136,-90.2733,553.5,9.6,11113222
BP,ioos:station:wmo:42369:2,2021-10-02T06:59:00Z,27.2137,-90.2734,552.7,9.6,11113222
BP,ioos:station:wmo:42369:2,2021-10-02T07:19:00Z,27.2138,-90.2734,554.6,9.5,11113222
BP,ioos:station:wmo:42369:2,2021-10-02T07:39:00Z,27.2138,-90.2734,555.6,9.5,11113222
BP,ioos:station:wmo:42369:2,2021-10-02T07:59:00Z,27.2138,-90.2735,558.5,9.5,11113222
BP,ioos:station:wmo:42369:2,2021-10-02T08:19:00Z,27.2138,-90.2735,559.2,9.5,11113222
BP,ioos:station:wmo:42369:2,2021-10-02T08:39:00Z,27.2138,-90.2735,560.3,9.5,11113222
BP,ioos:station:wmo:42369:2,2021-10-02T08:59:00Z,27.2138,-90.2735,562.1,9.5,11113222
BP,ioos:station:wmo:42369:2,2021-10-02T09:19:00Z,27.2138,-90.2735,563.1,9.4,11113222
BP,ioos:station:wmo:42369:2,2021-10-02T09:39:00Z,27.2138,-90.2735,562.6,9.4,11113222
BP,ioos:station:wmo:42369:2,2021-10-02T17:19:00Z,27.2132,-90.2729,565.7,9.7,11113222
BP,ioos:station:wmo:42369:2,2021-10-02T17:39:00Z,27.2129,-90.2728,567.1,9.6,11113222
BP,ioos:station:wmo:42369:2,2021-10-02T17:59:00Z,27.2129,-90.2728,568.8,9.6,11113222
BP,ioos:station:wmo:42369:2,2021-10-02T18:19:00Z,27.2130,-90.2728,569.2,9.6,11113222
BP,ioos:station:wmo:42369:2,2021-10-02T18:39:00Z,27.2130,-90.2728,569.1,9.6,11113222
BP,ioos:station:wmo:42369:2,2021-10-02T18:59:00Z,27.2130,-90.2728,571.2,9.6,11113222
BP,ioos:station:wmo:42369:2,2021-10-02T19:19:00Z,27.2130,-90.2728,571.1,9.5,11113222
BP,ioos:station:wmo:42369:2,2021-10-02T19:39:00Z,27.2129,-90.2727,572.4,9.5,11113222
BP,ioos:station:wmo:42369:2,2021-10-02T19:59:00Z,27.2129,-90.2727,573.4,9.4,11113222
BP,ioos:station:wmo:42369:2,2021-10-02T20:19:00Z,27.2129,-90.2727,574.7,9.4,11113222
BP,ioos:station:wmo:42369:2,2021-10-02T20:39:00Z,27.2129,-90.2727,575.2,9.3,11113222
BP,ioos:station:wmo:42369:2,2021-10-02T20:59:00Z,27.2129,-90.2728,576.3,9.3,11113222
BP,ioos:station:wmo:42369:2,2021-10-02T21:19:00Z,27.2129,-90.2728,576.1,9.3,11113222
BP,ioos:station:wmo:42369:2,2021-10-02T21:39:00Z,27.2129,-90.2728,577.0,9.3,11113222
BP,ioos:station:wmo:42369:2,2021-10-02T21:59:00Z,27.2129,-90.2728,576.4,9.4,11113222
BP,ioos:station:wmo:42369:2,2021-10-02T22:19:00Z,27.2129,-90.2728,575.2,9.4,11113222
BP,ioos:station:wmo:42369:2,2021-10-02T22:39:00Z,27.2129,-90.2728,574.4,9.3,11113222
BP,ioos:station:wmo:42369:2,2021-10-02T22:59:00Z,27.2129,-90.2728,573.3,9.3,11113222
BP,ioos:station:wmo:42369:2,2021-10-02T23:19:00Z,27.2129,-90.2728,572.3,9.3,11113222
BP,ioos:station:wmo:42369:2,2021-10-02T23:59:00Z,27.2131,-90.2728,571.7,9.2,11113222
BP,ioos:station:wmo:42369:2,2021-10-03T00:39:00Z,27.2129,-90.2728,570.2,9.3,11113222
BP,ioos:station:wmo:42369:2,2021-10-03T00:59:00Z,27.2129,-90.2728,569.2,9.2,11113222
BP,ioos:station:wmo:42369:2,2021-10-03T01:19:00Z,27.2129,-90.2728,568.3,9.2,11113222
BP,ioos:station:wmo:42369:2,2021-10-03T01:39:00Z,27.2129,-90.2728,567.3,9.2,11113222
BP,ioos:station:wmo:42369:2,2021-10-03T01:59:00Z,27.2132,-90.2729,566.6,9.2,11113222
BP,ioos:station:wmo:42369:2,2021-10-03T02:19:00Z,27.2129,-90.2728,566.0,9.1,11113222
BP,ioos:station:wmo:42369:2,2021-10-03T02:39:00Z,27.2129,-90.2728,566.5,9.1,11113222
BP,ioos:station:wmo:42369:2,2021-10-03T02:59:00Z,27.2128,-90.2728,566.0,9.1,11113222
BP,ioos:station:wmo:42369:2,2021-10-03T03:19:00Z,27.2128,-90.2728,566.3,9.1,11113222
BP,ioos:station:wmo:42369:2,2021-10-03T03:39:00Z,27.2128,-90.2728,566.6,9.1,11113222
BP,ioos:station:wmo:42369:2,2021-10-03T04:19:00Z,27.2127,-90.2727,566.0,9.2,11113222
BP,ioos:station:wmo:42369:2,2021-10-03T04:39:00Z,27.2127,-90.2727,566.7,9.2,11113222
BP,ioos:station:wmo:42369:2,2021-10-03T04:59:00Z,27.2125,-90.2726,566.4,9.1,11113222
BP,ioos:station:wmo:42369:2,2021-10-03T05:19:00Z,27.2125,-90.2726,564.7,9.1,11113222
BP,ioos:station:wmo:42369:2,2021-10-03T05:39:00Z,27.2124,-90.2725,565.5,9.1,11113222
BP,ioos:station:wmo:42369:2,2021-10-03T05:59:00Z,27.2124,-90.2726,566.4,9.0,11113222
BP,ioos:station:wmo:42369:2,2021-10-03T06:19:00Z,27.2124,-90.2726,565.1,9.0,11113222
BP,ioos:station:wmo:42369:2,2021-10-03T06:59:00Z,27.2125,-90.2727,564.1,9.0,11113222
BP,ioos:station:wmo:42369:2,2021-10-03T07:59:00Z,27.2132,-90.2730,562.1,9.3,11113222
BP,ioos:station:wmo:42369:2,2021-10-03T08:19:00Z,27.2125,-90.2727,561.6,9.3,11113222
BP,ioos:station:wmo:42369:2,2021-10-03T08:39:00Z,27.2125,-90.2727,559.9,9.3,11113222
BP,ioos:station:wmo:42369:2,2021-10-03T08:59:00Z,27.2127,-90.2729,559.7,9.5,11113222
BP,ioos:station:wmo:42369:2,2021-10-03T09:19:00Z,27.2126,-90.2728,560.3,9.4,11113222
BP,ioos:station:wmo:42369:2,2021-10-03T09:39:00Z,27.2126,-90.2728,560.9,9.5,11113222
BP,ioos:station:wmo:42369:2,2021-10-03T09:59:00Z,27.2130,-90.2729,560.7,9.5,11113222
BP,ioos:station:wmo:42369:2,2021-10-03T10:19:00Z,27.2124,-90.2727,557.6,9.5,11113222
BP,ioos:station:wmo:42369:2,2021-10-03T10:39:00Z,27.2123,-90.2726,554.8,9.7,11113222
BP,ioos:station:wmo:42369:2,2021-10-03T10:59:00Z,27.2123,-90.2726,553.9,9.7,11113222
BP,ioos:station:wmo:42369:2,2021-10-03T11:19:00Z,27.2122,-90.2726,553.9,9.7,11113222
BP,ioos:station:wmo:42369:2,2021-10-03T11:59:00Z,27.2131,-90.2730,553.2,9.7,11113222
BP,ioos:station:wmo:42369:2,2021-10-03T12:59:00Z,27.2120,-90.2723,554.6,9.9,11113222
BP,ioos:station:wmo:42369:2,2021-10-03T13:19:00Z,27.2120,-90.2723,554.7,10.0,11113222
BP,ioos:station:wmo:42369:2,2021-10-03T13:59:00Z,27.2132,-90.2731,554.5,10.0,11113222
BP,ioos:station:wmo:42369:2,2021-10-03T15:19:00Z,27.2121,-90.2723,554.3,9.9,11113222
BP,ioos:station:wmo:42369:2,2021-10-03T15:39:00Z,27.2121,-90.2723,555.6,9.8,11113222
BP,ioos:station:wmo:42369:2,2021-10-03T15:59:00Z,27.2132,-90.2731,555.7,9.9,11113222
BP,ioos:station:wmo:42369:2,2021-10-03T16:19:00Z,27.2132,-90.2731,554.3,9.9,11113222
BP,ioos:station:wmo:42369:2,2021-10-03T16:39:00Z,27.2132,-90.2730,554.0,9.7,11113222
BP,ioos:station:wmo:42369:2,2021-10-03T16:59:00Z,27.2132,-90.2729,554.0,9.7,11113222
BP,ioos:station:wmo:42369:2,2021-10-03T17:19:00Z,27.2130,-90.2728,560.1,9.5,11113222
BP,ioos:station:wmo:42369:2,2021-10-03T17:39:00Z,27.2129,-90.2728,561.1,9.5,11113222
BP,ioos:station:wmo:42369:2,2021-10-03T17:59:00Z,27.2130,-90.2728,558.7,9.7,11113222
BP,ioos:station:wmo:42369:2,2021-10-03T18:19:00Z,27.2130,-90.2728,555.5,9.7,11113222
BP,ioos:station:wmo:42369:2,2021-10-03T18:39:00Z,27.2130,-90.2728,557.5,9.7,11113222
BP,ioos:station:wmo:42369:2,2021-10-03T18:59:00Z,27.2130,-90.2728,559.9,9.6,11113222
BP,ioos:station:wmo:42369:2,2021-10-03T19:19:00Z,27.2129,-90.2727,561.0,9.6,11113222
BP,ioos:station:wmo:42369:2,2021-10-03T19:39:00Z,27.2129,-90.2727,561.6,9.7,11113222
BP,ioos:station:wmo:42369:2,2021-10-03T19:59:00Z,27.2129,-90.2727,562.7,9.6,11113222
BP,ioos:station:wmo:42369:2,2021-10-03T20:19:00Z,27.2129,-90.2727,562.3,9.7,11113222
BP,ioos:station:wmo:42369:2,2021-10-03T20:39:00Z,27.2129,-90.2728,561.7,9.7,11113222
BP,ioos:station:wmo:42369:2,2021-10-03T20:59:00Z,27.2129,-90.2728,560.4,9.7,11113222
BP,ioos:station:wmo:42369:2,2021-10-03T21:19:00Z,27.2129,-90.2728,559.9,9.7,11113222
BP,ioos:station:wmo:42369:2,2021-10-03T21:39:00Z,27.2129,-90.2728,559.7,9.7,11113222
BP,ioos:station:wmo:42369:2,2021-10-03T21:59:00Z,27.2129,-90.2728,558.5,9.8,11113222
BP,ioos:station:wmo:42369:2,2021-10-03T22:19:00Z,27.2129,-90.2728,558.7,9.8,11113222
BP,ioos:station:wmo:42369:2,2021-10-03T22:39:00Z,27.2129,-90.2728,558.7,9.7,11113222
BP,ioos:station:wmo:42369:2,2021-10-03T22:59:00Z,27.2129,-90.2728,558.7,9.7,11113222
BP,ioos:station:wmo:42369:2,2021-10-03T23:19:00Z,27.2129,-90.2728,557.8,9.7,11113222
BP,ioos:station:wmo:42369:2,2021-10-03T23:39:00Z,27.2129,-90.2728,558.3,9.7,11113222
BP,ioos:station:wmo:42369:2,2021-10-03T23:59:00Z,27.2129,-90.2728,558.4,9.7,11113222
BP,ioos:station:wmo:42369:2,2021-10-04T00:19:00Z,27.2129,-90.2728,558.1,9.7,11113222
BP,ioos:station:wmo:42369:2,2021-10-04T00:39:00Z,27.2129,-90.2728,556.7,9.7,11113222
BP,ioos:station:wmo:42369:2,2021-10-04T00:59:00Z,27.2128,-90.2728,555.7,9.7,11113222
BP,ioos:station:wmo:42369:2,2021-10-04T01:19:00Z,27.2128,-90.2728,555.4,9.8,11113222
BP,ioos:station:wmo:42369:2,2021-10-04T01:39:00Z,27.2127,-90.2728,554.0,9.8,11113222
BP,ioos:station:wmo:42369:2,2021-10-04T01:59:00Z,27.2127,-90.2728,552.6,9.9,11113222
BP,ioos:station:wmo:42369:2,2021-10-04T02:39:00Z,27.2125,-90.2726,550.6,10.0,11113222
BP,ioos:station:wmo:42369:2,2021-10-04T02:59:00Z,27.2125,-90.2726,550.5,10.1,11111222
BP,ioos:station:wmo:42369:2,2021-10-04T03:19:00Z,27.2125,-90.2726,548.9,10.1,11111222
BP,ioos:station:wmo:42369:2,2021-10-04T03:39:00Z,27.2124,-90.2725,548.6,10.0,11111222
BP,ioos:station:wmo:42369:2,2021-10-04T03:59:00Z,27.2124,-90.2725,548.5,10.0,11111222
BP,ioos:station:wmo:42369:2,2021-10-04T04:19:00Z,27.2124,-90.2726,548.4,10.0,11111222
BP,ioos:station:wmo:42369:2,2021-10-04T04:39:00Z,27.2124,-90.2726,547.9,10.0,11113222
BP,ioos:station:wmo:42369:2,2021-10-04T04:59:00Z,27.2124,-90.2725,549.2,10.1,11111222
BP,ioos:station:wmo:42369:2,2021-10-04T05:19:00Z,27.2125,-90.2726,549.0,10.1,11111222
BP,ioos:station:wmo:42369:2,2021-10-04T05:39:00Z,27.2125,-90.2727,547.7,10.1,11111222
BP,ioos:station:wmo:42369:2,2021-10-04T05:59:00Z,27.2125,-90.2727,547.5,10.1,11111222
BP,ioos:station:wmo:42369:2,2021-10-04T06:19:00Z,27.2125,-90.2727,547.1,10.1,11111222
BP,ioos:station:wmo:42369:2,2021-10-04T06:39:00Z,27.2125,-90.2726,546.9,10.1,11111222
BP,ioos:station:wmo:42369:2,2021-10-04T06:59:00Z,27.2125,-90.2727,545.4,10.0,11111222
BP,ioos:station:wmo:42369:2,2021-10-04T07:19:00Z,27.2127,-90.2728,547.5,10.0,11113222
BP,ioos:station:wmo:42369:2,2021-10-04T07:39:00Z,27.2127,-90.2729,547.6,10.0,11111222
BP,ioos:station:wmo:42369:2,2021-10-04T07:59:00Z,27.2126,-90.2729,542.9,10.1,11111222
BP,ioos:station:wmo:42369:2,2021-10-04T08:19:00Z,27.2126,-90.2728,543.3,10.0,11111222
BP,ioos:station:wmo:42369:2,2021-10-04T08:39:00Z,27.2126,-90.2728,543.1,10.0,11113222
BP,ioos:station:wmo:42369:2,2021-10-04T08:59:00Z,27.2126,-90.2728,542.3,10.1,11111222
BP,ioos:station:wmo:42369:2,2021-10-04T09:19:00Z,27.2125,-90.2727,542.7,10.2,11111222
BP,ioos:station:wmo:42369:2,2021-10-04T09:39:00Z,27.2124,-90.2726,542.6,10.2,11111222
BP,ioos:station:wmo:42369:2,2021-10-04T09:59:00Z,27.2124,-90.2726,542.6,10.2,11111222
BP,ioos:station:wmo:42369:2,2021-10-04T10:19:00Z,27.2123,-90.2726,544.5,10.3,11111222
BP,ioos:station:wmo:42369:2,2021-10-04T10:39:00Z,27.2123,-90.2726,542.5,10.3,11111222
BP,ioos:station:wmo:42369:2,2021-10-04T10:59:00Z,27.2122,-90.2726,541.1,10.3,11111222
BP,ioos:station:wmo:42369:2,2021-10-04T11:19:00Z,27.2121,-90.2725,541.6,10.2,11111222
BP,ioos:station:wmo:42369:2,2021-10-04T11:39:00Z,27.2121,-90.2724,539.6,10.2,11111222
BP,ioos:station:wmo:42369:2,2021-10-04T11:59:00Z,27.2120,-90.2724,538.1,10.2,11111222
BP,ioos:station:wmo:42369:2,2021-10-04T12:19:00Z,27.2120,-90.2723,537.8,10.2,11111222
BP,ioos:station:wmo:42369:2,2021-10-04T12:39:00Z,27.2120,-90.2723,538.9,10.2,11111222
BP,ioos:station:wmo:42369:2,2021-10-04T12:59:00Z,27.2122,-90.2724,539.4,10.2,11111222
BP,ioos:station:wmo:42369:2,2021-10-04T13:19:00Z,27.2121,-90.2724,540.7,10.1,11111222
BP,ioos:station:wmo:42369:2,2021-10-04T13:39:00Z,27.2121,-90.2724,540.1,10.1,11111222
BP,ioos:station:wmo:42369:2,2021-10-04T13:59:00Z,27.2122,-90.2724,538.1,10.2,11111222
BP,ioos:station:wmo:42369:2,2021-10-04T14:19:00Z,27.2121,-90.2724,539.1,10.1,11111222
BP,ioos:station:wmo:42369:2,2021-10-04T14:39:00Z,27.2121,-90.2723,540.5,10.1,11111222
BP,ioos:station:wmo:42369:2,2021-10-04T14:59:00Z,27.2120,-90.2723,540.4,10.1,11111222
BP,ioos:station:wmo:42369:2,2021-10-04T15:59:00Z,27.2119,-90.2723,537.9,10.2,11111222
BP,ioos:station:wmo:42369:2,2021-10-04T16:19:00Z,27.2119,-90.2722,537.9,10.1,11111222
BP,ioos:station:wmo:42369:2,2021-10-04T16:39:00Z,27.2118,-90.2722,539.6,10.1,11111222
BP,ioos:station:wmo:42369:2,2021-10-04T16:59:00Z,27.2118,-90.2722,540.0,10.1,11111222
BP,ioos:station:wmo:42369:2,2021-10-04T17:19:00Z,27.2118,-90.2721,538.6,10.1,11111222
BP,ioos:station:wmo:42369:2,2021-10-04T17:39:00Z,27.2118,-90.2721,538.9,10.1,11111222
BP,ioos:station:wmo:42369:2,2021-10-04T17:59:00Z,27.2118,-90.2721,539.5,10.2,11111222
BP,ioos:station:wmo:42369:2,2021-10-04T18:19:00Z,27.2117,-90.2721,539.6,10.2,11111222
BP,ioos:station:wmo:42369:2,2021-10-04T18:39:00Z,27.2117,-90.2721,540.7,10.2,11111222
BP,ioos:station:wmo:42369:2,2021-10-04T18:59:00Z,27.2118,-90.2721,544.1,10.2,11111222
BP,ioos:station:wmo:42369:2,2021-10-04T19:19:00Z,27.2117,-90.2721,545.6,10.1,11111222
BP,ioos:station:wmo:42369:2,2021-10-04T19:39:00Z,27.2117,-90.2721,545.2,10.1,11111222
BP,ioos:station:wmo:42369:2,2021-10-04T19:59:00Z,27.2117,-90.2721,544.9,10.1,11111222
BP,ioos:station:wmo:42369:2,2021-10-04T20:19:00Z,27.2117,-90.2721,544.4,10.2,11111222
BP,ioos:station:wmo:42369:2,2021-10-04T20:39:00Z,27.2117,-90.2721,544.5,10.3,11111222
BP,ioos:station:wmo:42369:2,2021-10-04T20:59:00Z,27.2117,-90.2721,544.6,10.3,11111222
BP,ioos:station:wmo:42369:2,2021-10-04T21:19:00Z,27.2118,-90.2722,544.9,10.3,11111222
BP,ioos:station:wmo:42369:2,2021-10-04T21:39:00Z,27.2120,-90.2724,545.7,10.3,11111222
BP,ioos:station:wmo:42369:2,2021-10-04T21:59:00Z,27.2121,-90.2724,545.5,10.4,11111222
BP,ioos:station:wmo:42369:2,2021-10-04T22:19:00Z,27.2122,-90.2726,546.7,10.4,11111222
BP,ioos:station:wmo:42369:2,2021-10-04T22:39:00Z,27.2122,-90.2727,545.2,10.3,11111222
BP,ioos:station:wmo:42369:2,2021-10-04T22:59:00Z,27.2123,-90.2727,543.7,10.3,11111222
BP,ioos:station:wmo:42369:2,2021-10-04T23:19:00Z,27.2123,-90.2728,543.5,10.3,11111222
BP,ioos:station:wmo:42369:2,2021-10-04T23:39:00Z,27.2123,-90.2728,543.3,10.3,11111222
BP,ioos:station:wmo:42369:2,2021-10-04T23:59:00Z,27.2123,-90.2728,543.3,10.3,11111222
BP,ioos:station:wmo:42369:2,2021-10-05T00:19:00Z,27.2122,-90.2728,543.3,10.4,11111222
BP,ioos:station:wmo:42369:2,2021-10-05T00:39:00Z,27.2122,-90.2728,542.8,10.4,11111222
BP,ioos:station:wmo:42369:2,2021-10-05T00:59:00Z,27.2122,-90.2728,542.2,10.5,11111222
BP,ioos:station:wmo:42369:2,2021-10-05T01:19:00Z,27.2122,-90.2728,540.5,10.4,11111222
BP,ioos:station:wmo:42369:2,2021-10-05T01:39:00Z,27.2124,-90.2730,540.8,10.4,11111222
BP,ioos:station:wmo:42369:2,2021-10-05T01:59:00Z,27.2125,-90.2730,540.4,10.4,11111222
BP,ioos:station:wmo:42369:2,2021-10-05T02:19:00Z,27.2125,-90.2731,539.8,10.4,11111222
BP,ioos:station:wmo:42369:2,2021-10-05T02:39:00Z,27.2124,-90.2731,538.4,10.4,11111222
BP,ioos:station:wmo:42369:2,2021-10-05T02:59:00Z,27.2124,-90.2731,538.6,10.4,11111222
BP,ioos:station:wmo:42369:2,2021-10-05T03:19:00Z,27.2123,-90.2731,538.3,10.4,11111222
BP,ioos:station:wmo:42369:2,2021-10-05T03:39:00Z,27.2123,-90.2731,536.6,10.4,11111222
BP,ioos:station:wmo:42369:2,2021-10-05T03:59:00Z,27.2124,-90.2732,535.9,10.4,11111222
BP,ioos:station:wmo:42369:2,2021-10-05T04:19:00Z,27.2123,-90.2731,535.2,10.4,11111222
BP,ioos:station:wmo:42369:2,2021-10-05T04:39:00Z,27.2122,-90.2731,533.7,10.4,11111222
BP,ioos:station:wmo:42369:2,2021-10-05T04:59:00Z,27.2122,-90.2732,533.2,10.6,11111222
BP,ioos:station:wmo:42369:2,2021-10-05T05:19:00Z,27.2122,-90.2732,532.5,10.7,11111222
BP,ioos:station:wmo:42369:2,2021-10-05T05:39:00Z,27.2122,-90.2732,532.5,10.7,11111222
BP,ioos:station:wmo:42369:2,2021-10-05T05:59:00Z,27.2121,-90.2732,532.4,10.7,11111222
BP,ioos:station:wmo:42369:2,2021-10-05T06:19:00Z,27.2121,-90.2732,531.3,10.8,11111222
BP,ioos:station:wmo:42369:2,2021-10-05T06:39:00Z,27.2121,-90.2732,531.1,10.8,11111222
BP,ioos:station:wmo:42369:2,2021-10-05T06:59:00Z,27.2121,-90.2732,529.8,10.7,11111222
BP,ioos:station:wmo:42369:2,2021-10-05T07:19:00Z,27.2121,-90.2732,528.5,10.7,11111222
BP,ioos:station:wmo:42369:2,2021-10-05T07:39:00Z,27.2121,-90.2732,526.7,10.7,11111222
BP,ioos:station:wmo:42369:2,2021-10-05T07:59:00Z,27.2120,-90.2732,525.9,10.7,11111222
BP,ioos:station:wmo:42369:2,2021-10-05T08:19:00Z,27.2120,-90.2732,526.0,10.7,11111222
BP,ioos:station:wmo:42369:2,2021-10-05T08:39:00Z,27.2120,-90.2732,525.7,10.8,11111222
BP,ioos:station:wmo:42369:2,2021-10-05T08:59:00Z,27.2120,-90.2732,524.2,10.8,11111222
BP,ioos:station:wmo:42369:2,2021-10-05T09:19:00Z,27.2120,-90.2732,524.4,10.7,11111222
BP,ioos:station:wmo:42369:2,2021-10-05T09:39:00Z,27.2120,-90.2733,524.2,10.8,11111222
BP,ioos:station:wmo:42369:2,2021-10-05T09:59:00Z,27.2120,-90.2733,523.8,10.7,11111222
BP,ioos:station:wmo:42369:2,2021-10-05T10:19:00Z,27.2120,-90.2733,524.0,10.7,11111222
BP,ioos:station:wmo:42369:2,2021-10-05T10:39:00Z,27.2120,-90.2733,522.2,10.7,11111222
BP,ioos:station:wmo:42369:2,2021-10-05T10:59:00Z,27.2120,-90.2732,521.2,10.7,11111222
BP,ioos:station:wmo:42369:2,2021-10-05T11:19:00Z,27.2119,-90.2732,521.0,10.8,11111222
BP,ioos:station:wmo:42369:2,2021-10-05T11:39:00Z,27.2120,-90.2732,518.5,10.9,11111222
BP,ioos:station:wmo:42369:2,2021-10-05T11:59:00Z,27.2119,-90.2732,516.6,11.1,11111222
BP,ioos:station:wmo:42369:2,2021-10-05T12:19:00Z,27.2119,-90.2732,515.7,11.0,11111222
BP,ioos:station:wmo:42369:2,2021-10-05T12:39:00Z,27.2119,-90.2732,515.2,11.0,11111222
BP,ioos:station:wmo:42369:2,2021-10-05T12:59:00Z,27.2119,-90.2732,515.3,11.0,11111222
BP,ioos:station:wmo:42369:2,2021-10-05T13:19:00Z,27.2119,-90.2732,514.2,11.0,11111222
BP,ioos:station:wmo:42369:2,2021-10-05T13:39:00Z,27.2119,-90.2732,511.8,11.1,11111222
BP,ioos:station:wmo:42369:2,2021-10-05T14:19:00Z,27.2119,-90.2732,505.4,11.1,11111222
BP,ioos:station:wmo:42369:2,2021-10-05T14:39:00Z,27.2119,-90.2732,505.2,11.1,11111222
BP,ioos:station:wmo:42369:2,2021-10-05T14:59:00Z,27.2119,-90.2732,504.4,11.1,11111222
BP,ioos:station:wmo:42369:2,2021-10-05T15:19:00Z,27.2120,-90.2732,502.8,11.1,11111222
BP,ioos:station:wmo:42369:2,2021-10-05T15:39:00Z,27.2120,-90.2732,502.2,11.1,11111222
BP,ioos:station:wmo:42369:2,2021-10-05T15:59:00Z,27.2119,-90.2732,501.6,11.1,11111222
BP,ioos:station:wmo:42369:2,2021-10-05T16:19:00Z,27.2119,-90.2732,500.2,11.1,11111222
BP,ioos:station:wmo:42369:2,2021-10-05T20:19:00Z,27.2117,-90.2731,500.8,11.0,11111222
BP,ioos:station:wmo:42369:2,2021-10-05T20:39:00Z,27.2117,-90.2731,501.2,11.1,11111222
BP,ioos:station:wmo:42369:2,2021-10-05T20:59:00Z,27.2117,-90.2731,501.9,11.1,11111222
BP,ioos:station:wmo:42369:2,2021-10-05T21:19:00Z,27.2117,-90.2732,501.9,11.0,11111222
BP,ioos:station:wmo:42369:2,2021-10-05T21:39:00Z,27.2118,-90.2733,502.2,11.0,11111222
BP,ioos:station:wmo:42369:2,2021-10-05T21:59:00Z,27.2118,-90.2733,501.2,11.0,11111222
BP,ioos:station:wmo:42369:2,2021-10-05T22:19:00Z,27.2118,-90.2733,500.6,11.1,11111222
BP,ioos:station:wmo:42369:2,2021-10-05T22:59:00Z,27.2117,-90.2731,500.4,11.2,11111222
BP,ioos:station:wmo:42369:2,2021-10-05T23:19:00Z,27.2117,-90.2731,499.4,11.3,11111222
BP,ioos:station:wmo:42369:2,2021-10-05T23:39:00Z,27.2117,-90.2731,498.5,11.3,11111222
BP,ioos:station:wmo:42369:2,2021-10-05T23:59:00Z,27.2117,-90.2731,498.3,11.4,11111222
BP,ioos:station:wmo:42369:2,2021-10-06T00:19:00Z,27.2117,-90.2732,497.7,11.3,11111222
BP,ioos:station:wmo:42369:2,2021-10-06T00:39:00Z,27.2118,-90.2732,497.4,11.3,11111222
BP,ioos:station:wmo:42369:2,2021-10-06T00:59:00Z,27.2118,-90.2733,496.7,11.3,11111222
BP,ioos:station:wmo:42369:2,2021-10-06T01:59:00Z,27.2118,-90.2735,494.5,11.3,11111222
BP,ioos:station:wmo:42369:2,2021-10-06T02:19:00Z,27.2118,-90.2735,494.6,11.4,11111222
BP,ioos:station:wmo:42369:2,2021-10-06T02:39:00Z,27.2118,-90.2735,494.0,11.4,11111222
BP,ioos:station:wmo:42369:2,2021-10-06T02:59:00Z,27.2117,-90.2734,492.8,11.4,11111222
BP,ioos:station:wmo:42369:2,2021-10-06T03:19:00Z,27.2116,-90.2733,491.8,11.5,11111222
BP,ioos:station:wmo:42369:2,2021-10-06T03:39:00Z,27.2116,-90.2733,491.3,11.5,11111222
BP,ioos:station:wmo:42369:2,2021-10-06T03:59:00Z,27.2116,-90.2733,490.8,11.5,11111222
BP,ioos:station:wmo:42369:2,2021-10-06T04:59:00Z,27.2118,-90.2735,488.7,11.7,11111222
BP,ioos:station:wmo:42369:2,2021-10-06T05:19:00Z,27.2118,-90.2735,489.0,11.7,11111222
BP,ioos:station:wmo:42369:2,2021-10-06T05:39:00Z,27.2118,-90.2734,490.4,11.7,11111222
BP,ioos:station:wmo:42369:2,2021-10-06T05:59:00Z,27.2117,-90.2734,490.6,11.7,11111222
BP,ioos:station:wmo:42369:2,2021-10-06T06:19:00Z,27.2116,-90.2733,489.9,11.6,11111222
BP,ioos:station:wmo:42369:2,2021-10-06T06:39:00Z,27.2116,-90.2733,489.3,11.6,11111222
BP,ioos:station:wmo:42369:2,2021-10-06T06:59:00Z,27.2115,-90.2733,488.8,11.8,11111222
BP,ioos:station:wmo:42369:2,2021-10-06T07:19:00Z,27.2115,-90.2733,488.5,11.7,11111222
BP,ioos:station:wmo:42369:2,2021-10-06T07:59:00Z,27.2114,-90.2729,489.9,11.8,11111222
BP,ioos:station:wmo:42369:2,2021-10-06T08:19:00Z,27.2114,-90.2729,489.5,11.7,11111222
BP,ioos:station:wmo:42369:2,2021-10-06T08:39:00Z,27.2113,-90.2729,490.2,11.7,11111222
BP,ioos:station:wmo:42369:2,2021-10-06T08:59:00Z,27.2114,-90.2731,490.0,11.7,11111222
BP,ioos:station:wmo:42369:2,2021-10-06T09:19:00Z,27.2114,-90.2731,491.6,11.7,11111222
BP,ioos:station:wmo:42369:2,2021-10-06T09:39:00Z,27.2113,-90.2731,492.0,11.7,11111222
BP,ioos:station:wmo:42369:2,2021-10-06T09:59:00Z,27.2114,-90.2730,492.6,11.6,11111222
BP,ioos:station:wmo:42369:2,2021-10-06T10:19:00Z,27.2114,-90.2729,495.2,11.5,11111222
BP,ioos:station:wmo:42369:2,2021-10-06T10:59:00Z,27.2113,-90.2731,494.6,11.5,11111222
BP,ioos:station:wmo:42369:2,2021-10-06T11:59:00Z,27.2113,-90.2732,491.2,11.7,11111222
BP,ioos:station:wmo:42369:2,2021-10-06T12:19:00Z,27.2113,-90.2732,491.2,11.7,11111222
BP,ioos:station:wmo:42369:2,2021-10-06T12:39:00Z,27.2112,-90.2732,490.1,11.7,11111222
BP,ioos:station:wmo:42369:2,2021-10-06T12:59:00Z,27.2114,-90.2731,490.1,11.7,11111222
BP,ioos:station:wmo:42369:2,2021-10-06T13:19:00Z,27.2114,-90.2731,489.2,11.8,11111222